Location: Pasadena, ca
(34.1243°N, 118.1037°W)
Time: 10:02:12
(UTC-07:00)

OTV 5 (USA 277) - Visible Passes

Search period start: 23 May 2018 00:00
Search period end: 02 June 2018 00:00
Orbit: 308 x 326 km, 54.5° (Epoch: 06 May)

Date Brightness Start Highest point End Pass type
(mag) Time Alt. Az. Time Alt. Az. Time Alt. Az.
27 May ? 04:28:25 16° S 04:29:49 24° SE 04:32:08 10° ENE visible
28 May ? 04:42:30 22° SW 04:44:08 85° NW 04:46:53 10° NE visible
29 May ? 03:25:39 11° E 03:25:39 11° E 03:25:57 10° E visible
29 May ? 04:56:31 12° W 04:58:35 24° NW 05:00:57 10° NNE visible
30 May ? 03:39:34 31° E 03:39:34 31° E 03:41:21 10° NE visible
30 May ? 05:12:43 10° NW 05:13:14 10° NW 05:13:44 10° NNW visible
31 May ? 03:53:26 40° NNW 03:53:26 40° NNW 03:55:44 10° NNE visible
01 Jun ? 04:07:14 15° NW 04:07:38 16° NW 04:09:26 10° N visible
